[[{"header":{"parameterUnit":"m.s-1","parameterCategory":1,"la1":30.2991,"la2":30.254,"lo1":-89.0895,"lo2":-89.0444,"dy":0.0017,"dx":0.0017,"nx":28,"ny":28,"refTime":"2024-05-17T21:00:00:Z","depth":0,"parameterNumber":2,"parameterNumberName":"U-component_of_WINDS"},"data":[0,0,0,0,0,0,0,0,0,0,0,0,0,0,0,0,0,0,0,0,0,0,0,0,0,0,0,0,0,0,0,0,0,0,0,0,0,0,0,0,0,0,0,0,0,0,0,0,0,0,0,0,0,0,0,0,0,0,-2.0194,-2.0194,0,-2.0196,-2.0196,-2.0196,-2.0125,-2.0123,-2.0121,-2.0119,-2.0124,-2.0126,-2.0128,0,0,0,0,0,0,0,0,0,0,0,0,0,-2.0132,-2.0133,-2.0194,-2.0194,-2.0194,-2.0196,-2.0196,-2.0196,-2.0125,-2.0123,-2.012,-2.0118,-2.0124,-2.0126,-2.0128,0,0,0,0,0,0,0,0,0,0,0,0,0,-2.0149,-2.0134,-2.0194,-2.0159,-2.0156,-2.0196,-2.0196,-2.0196,-2.0125,-2.0122,-2.012,-2.0117,-2.0123,-2.0126,-2.0128,-2.0204,0,0,-2.0137,-2.0139,0,0,0,0,0,0,0,0,-2.0148,-2.0151,-2.0164,-2.0161,-2.0158,-2.0157,-2.0176,-2.0199,-2.0126,-2.0137,-2.0119,-2.0115,-2.0138,-2.0139,-2.0146,-2.0204,-2.0205,-2.0138,-2.0139,-2.0141,-2.0141,0,0,0,0,0,0,0,-2.0147,-2.0151,-2.0195,-2.0164,-2.016,-2.0144,-2.0143,-2.018,-2.0154,-2.0136,-2.0131,-2.0132,-2.0135,-2.0143,-2.0146,-2.0205,-2.0138,-2.014,-2.0142,-2.0143,-2.0326,-2.0329,0,0,0,0,0,0,-2.015,-2.015,-2.0195,-2.0195,-2.0146,-2.0147,-2.0147,-2.016,-2.0153,-2.0149,-2.0134,-2.0128,-2.014,-2.0142,-2.0146,-2.0234,-2.0141,-2.0143,-2.0145,-2.0323,-2.0327,-2.033,0,0,0,0,0,0,-2.0149,-2.0155,-2.0195,-2.0171,-2.0175,-2.0151,-2.0168,-2.0162,-2.017,-2.0152,-2.0147,-2.0147,-2.0138,-2.0141,-2.019,-2.0233,-2.0145,-2.0147,-2.0319,-2.0324,-2.0329,-2.0411,0,0,0,0,0,0,-2.0148,-2.0155,-2.0182,-2.0172,-2.0177,-2.0239,-2.017,-2.0164,-2.0174,-2.0167,-2.0162,-2.0159,-2.0136,-2.0186,-2.0193,-2.0235,-2.015,-2.0315,-2.0322,-2.0327,-2.0404,-2.0418,-2.043,0,0,0,0,0,-2.0146,-2.0206,-2.0184,-2.019,-2.0211,-2.0241,-2.0244,-2.0215,-2.0178,-2.0206,-2.0195,-2.0159,-2.0227,-2.0192,-2.0199,-2.0243,-2.0313,-2.032,-2.0327,-2.0399,-2.0415,-2.0429,0,0,0,0,0,0,-2.0223,-2.0204,-2.018,-2.0238,-2.0242,-2.0229,-2.0263,-2.0233,-2.0248,-2.024,-2.0205,-2.0205,-2.0259,-2.0256,-2.0217,-2.0316,-2.0264,-2.0272,-2.0316,-2.0332,-2.0344,-2.0344,-2.0152,0,0,0,0,0,-2.0247,-2.0272,-2.0255,-2.0308,-2.0311,-2.0287,-2.03,-2.0277,-2.028,-2.0281,-2.0273,-2.0278,-2.03,-2.0316,-2.0335,-2.0404,-2.0402,-2.0438,-2.045,-2.0461,-2.0469,-2.0505,-2.0521,-2.0353,-2.0353,-2.0353,0,0,-2.0296,-2.0289,-2.0307,-2.0324,-2.0324,-2.0352,-2.0289,-2.0321,-2.0342,-2.0286,-2.0331,-2.0326,-2.0329,-2.0388,-2.0413,-2.0387,-2.0515,-2.047,-2.0478,-2.048,-2.0514,-2.053,-2.0544,-2.0358,-2.0357,-2.0356,0,0,-2.0401,-2.0398,-2.0442,-2.0443,-2.0444,-2.0427,-2.0438,-2.043,-2.0424,-2.0469,-2.0428,-2.0453,-2.0492,-2.0496,-2.0503,-2.061,-2.0578,-2.0618,-2.0684,-2.072,-2.0733,-2.0744,-2.0783,-2.0797,-2.0626,-2.0626,-2.0626,0,-2.0462,-2.0502,-2.0469,-2.0504,-2.0513,-2.0463,-2.0508,-2.0512,-2.0519,-2.0527,-2.0497,-2.0545,-2.0544,-2.0603,-2.063,-2.0637,-2.0649,-2.0618,-2.0733,-2.0745,-2.0755,-2.0791,-2.0806,-2.0631,-2.063,-2.063,-2.0629,0,-2.0578,-2.0606,-2.0642,-2.065,-2.0663,-2.0703,-2.0677,-2.0695,-2.0672,-2.0659,-2.0706,-2.0703,-2.0721,-2.0733,-2.0712,-2.079,-2.0774,-2.0739,-2.0686,-2.0776,-2.081,-2.0824,-2.0638,-2.0636,-2.0635,-2.0634,0,0,-2.0731,-2.0719,-2.0733,-2.0736,-2.0733,-2.0755,-2.0794,-2.0811,-2.0827,-2.0834,-2.0866,-2.0901,-2.0869,-2.0877,-2.0856,-2.0887,-2.0973,-2.0849,-2.0848,-2.0872,-2.106,-2.1086,-2.1103,-2.0952,-2.0954,-2.0956,-2.106,0,-2.0832,-2.0896,-2.0868,-2.0935,-2.0961,-2.0914,-2.0948,-2.0951,-2.0941,-2.0962,-2.0951,-2.0977,-2.0932,-2.0937,-2.0966,-2.0956,-2.101,-2.0948,-2.0982,-2.0984,-2.0982,-2.112,-2.1147,-2.1245,-2.1073,-2.1075,-2.1077,0,-2.0959,-2.097,-2.104,-2.1032,-2.1042,-2.1073,-2.1087,-2.1108,-2.111,-2.1101,-2.111,-2.1082,-2.112,-2.1068,-2.1121,-2.108,-2.1092,-2.1089,-2.1092,-2.1094,-2.1035,-2.1126,-2.1276,-2.1291,-2.1097,-2.1095,-2.1094,0,-2.1063,-2.1096,-2.1142,-2.1146,-2.1139,-2.1162,-2.116,-2.1159,-2.1172,-2.1184,-2.1192,-2.121,-2.1219,-2.1234,-2.1211,-2.1175,-2.1268,-2.1213,-2.1262,-2.1263,-2.1284,-2.1283,-2.1438,-2.1292,-2.1292,-2.1291,-2.1291,0,-2.1179,-2.1224,-2.1189,-2.1217,-2.1266,-2.1234,-2.1284,-2.1277,-2.1278,-2.1305,-2.1266,-2.1293,-2.1261,-2.1285,-2.1268,-2.1315,-2.132,-2.1314,-2.1309,-2.1317,-2.1318,-2.1325,-2.1317,-2.1295,-2.1294,-2.1294,-2.1293,0,-2.1304,-2.1282,-2.1329,-2.1319,-2.1317,-2.1354,-2.1345,-2.1372,-2.1359,-2.1394,-2.14,-2.138,-2.1406,-2.1385,-2.1411,-2.14,-2.1462,-2.1447,-2.1461,-2.1457,-2.1507,-2.1503,-2.1672,-2.1693,-2.1533,-2.1535,-2.1536,0,-2.138,-2.1413,-2.1405,-2.142,-2.1421,-2.1445,-2.1457,-2.1428,-2.1442,-2.1448,-2.1474,-2.1497,-2.1513,-2.1558,-2.1547,-2.1567,-2.1552,-2.161,-2.1555,-2.1563,-2.1553,-2.1552,-2.1555,-2.1621,-2.1623,-2.1625,-2.1626,0,-2.1516,-2.1504,-2.1522,-2.1537,-2.1552,-2.1563,-2.1571,-2.1585,-2.1555,-2.1574,-2.16,-2.1612,-2.1639,-2.1662,-2.1678,-2.1678,-2.1648,-2.1643,-2.1656,-2.1665,-2.1671,-2.1669,-2.1492,-2.164,-2.1638,-2.1637,-2.1636,-2.1636,-2.1619,-2.1646,-2.1645,-2.1667,-2.167,-2.1678,-2.1702,-2.1692,-2.1713,-2.1731,-2.1713,-2.1744,-2.1747,-2.1765,-2.1768,-2.1794,-2.177,-2.1788,-2.1792,-2.1797,-2.1804,-2.1667,-2.1796,-2.1796,-2.1796,-2.1795,-2.1795,0,-2.1754,-2.1751,-2.1771,-2.1783,-2.18,-2.1769,-2.1776,-2.1793,-2.1821,-2.1826,-2.1842,-2.1873,-2.1895,-2.1886,-2.1906,-2.1928,-2.1915,-2.1935,-2.1933,-2.1933,-2.1824,-2.1812,-2.1945,-2.1945,-2.1945,-2.1945,-2.1945,-2.1945,-2.1826,-2.187,-2.1858,-2.1904,-2.1901,-2.1931,-2.1937,-2.1945,-2.1949,-2.1984,-2.2002,-2.1995,-2.1995,-2.2015,-2.2035,-2.2031,-2.2041,-2.2066,-2.2058,-2.1956,-2.1941,-2.1927,-2.1915,-2.2068,-2.2068,-2.2165,-2.2165,-2.2166]},{"header":{"parameterUnit":"m.s-1","parameterCategory":1,"la1":30.2991,"la2":30.254,"lo1":-89.0895,"lo2":-89.0444,"dy":0.0017,"dx":0.0017,"nx":28,"ny":28,"refTime":"2024-05-17T21:00:00:Z","depth":0,"parameterNumber":3,"parameterNumberName":"V-component_of_WINDS"},"data":[0,0,0,0,0,0,0,0,0,0,0,0,0,0,0,0,0,0,0,0,0,0,0,0,0,0,0,0,0,0,0,0,0,0,0,0,0,0,0,0,0,0,0,0,0,0,0,0,0,0,0,0,0,0,0,0,0,0,4.7473,4.7475,0,4.7616,4.7617,4.7619,4.7633,4.7631,4.763,4.7628,4.7774,4.7779,4.7784,0,0,0,0,0,0,0,0,0,0,0,0,0,4.7213,4.7218,4.7473,4.7475,4.7477,4.7615,4.7617,4.7619,4.7633,4.7631,4.7629,4.7628,4.7772,4.7778,4.7785,0,0,0,0,0,0,0,0,0,0,0,0,0,4.7338,4.7219,4.7473,4.75,4.7504,4.7615,4.7617,4.762,4.7633,4.7631,4.7629,4.7627,4.777,4.7778,4.7786,4.7879,0,0,4.781,4.7813,0,0,0,0,0,0,0,0,4.7331,4.7347,4.7494,4.7498,4.7503,4.7604,4.7579,4.7707,4.7634,4.7584,4.7628,4.7626,4.7719,4.7731,4.7763,4.7886,4.7892,4.781,4.7815,4.7819,4.7821,0,0,0,0,0,0,0,4.7322,4.7341,4.7529,4.7496,4.7502,4.7505,4.7521,4.7603,4.7662,4.7588,4.759,4.7606,4.7721,4.7755,4.7766,4.7894,4.781,4.7817,4.7822,4.7825,4.8103,4.8105,0,0,0,0,0,0,4.7308,4.7334,4.7525,4.7534,4.7409,4.7512,4.7529,4.7574,4.7662,4.7673,4.7608,4.7607,4.7743,4.7757,4.7771,4.7888,4.7819,4.7826,4.783,4.81,4.8103,4.8106,0,0,0,0,0,0,4.7302,4.7325,4.7519,4.7434,4.7459,4.7519,4.7569,4.7578,4.7612,4.7677,4.7687,4.7632,4.7742,4.776,4.7853,4.7893,4.783,4.7837,4.8097,4.8101,4.8105,4.812,0,0,0,0,0,0,4.7295,4.7323,4.7359,4.7435,4.7464,4.7598,4.7572,4.7582,4.7626,4.7625,4.7702,4.7712,4.7741,4.7841,4.786,4.7902,4.7843,4.8093,4.8099,4.8103,4.8116,4.8124,4.813,0,0,0,0,0,4.7286,4.7357,4.736,4.7383,4.751,4.76,4.7616,4.7648,4.7629,4.7666,4.7707,4.771,4.7885,4.785,4.7872,4.7917,4.8091,4.8097,4.8103,4.8113,4.8122,4.813,0,0,0,0,0,0,4.7283,4.7367,4.7372,4.747,4.7528,4.7602,4.7649,4.7657,4.7721,4.7718,4.7755,4.7772,4.7863,4.7899,4.7859,4.8013,4.7986,4.7997,4.7986,4.7996,4.8003,4.7992,4.7849,0,0,0,0,0,4.7295,4.7361,4.743,4.751,4.7539,4.7589,4.763,4.7649,4.771,4.7735,4.7783,4.7842,4.7911,4.7955,4.8022,4.8121,4.8139,4.8163,4.8171,4.8176,4.8185,4.8242,4.8254,4.8125,4.8125,4.8125,0,0,4.7318,4.7372,4.7411,4.7511,4.7558,4.7626,4.761,4.7682,4.7733,4.7746,4.7836,4.7874,4.7942,4.8039,4.8084,4.8072,4.8224,4.8184,4.8188,4.8194,4.8249,4.8261,4.8272,4.8129,4.8129,4.8128,0,0,4.7395,4.7442,4.7515,4.7562,4.7634,4.7667,4.7684,4.7758,4.7784,4.7875,4.7886,4.7947,4.8064,4.8113,4.8153,4.8251,4.8256,4.8271,4.8309,4.8364,4.8374,4.8383,4.8418,4.843,4.828,4.828,4.828,0,4.7415,4.7518,4.7551,4.7624,4.7668,4.7683,4.7757,4.7801,4.7891,4.7921,4.7907,4.8055,4.8102,4.821,4.8234,4.8266,4.8287,4.8262,4.837,4.8379,4.8388,4.8422,4.8435,4.8281,4.8281,4.8281,4.8281,0,4.7539,4.7611,4.7661,4.7747,4.7797,4.787,4.7914,4.796,4.7976,4.8011,4.8104,4.8161,4.824,4.8267,4.8283,4.8379,4.837,4.8362,4.8336,4.8401,4.8434,4.8447,4.8283,4.8283,4.8282,4.8282,0,0,4.7619,4.7724,4.7742,4.7782,4.7862,4.7918,4.7992,4.8069,4.8109,4.817,4.8234,4.8333,4.8327,4.8372,4.8394,4.8442,4.8516,4.8428,4.8431,4.8443,4.8626,4.8632,4.8646,4.852,4.8523,4.8525,4.8621,0,4.7706,4.7838,4.787,4.7983,4.805,4.8066,4.8131,4.8187,4.8222,4.8284,4.8322,4.8392,4.8378,4.8406,4.8454,4.8497,4.8553,4.849,4.858,4.8582,4.8562,4.8663,4.8669,4.8757,4.8634,4.8636,4.8637,0,4.7825,4.789,4.8009,4.8082,4.8112,4.8169,4.8243,4.8302,4.8367,4.8389,4.844,4.8457,4.8535,4.8505,4.8614,4.857,4.8609,4.8635,4.8639,4.8649,4.8614,4.8676,4.8785,4.8799,4.8658,4.8656,4.8655,0,4.7872,4.7989,4.8076,4.811,4.8197,4.8237,4.8275,4.8338,4.8383,4.8448,4.8477,4.855,4.859,4.8647,4.8683,4.8658,4.8789,4.8762,4.881,4.8809,4.8837,4.8835,4.8954,4.8861,4.8861,4.8861,4.886,0,4.7966,4.8038,4.8098,4.8152,4.8234,4.8271,4.8351,4.839,4.8446,4.8507,4.8526,4.8583,4.8628,4.8692,4.8721,4.8807,4.8824,4.8845,4.8852,4.8843,4.8841,4.8869,4.8864,4.8864,4.8863,4.8863,4.8862,0,4.8032,4.8075,4.8171,4.8246,4.8266,4.8324,4.8388,4.8441,4.8477,4.8555,4.8575,4.8631,4.8707,4.8749,4.8844,4.8864,4.896,4.8964,4.8938,4.8941,4.8988,4.8983,4.913,4.9151,4.9043,4.9044,4.9045,0,4.8089,4.8146,4.8227,4.827,4.8309,4.8377,4.8424,4.8462,4.851,4.8588,4.8632,4.8709,4.8773,4.8894,4.8944,4.9017,4.9023,4.9069,4.9034,4.9024,4.9024,4.9021,4.9027,4.9075,4.9076,4.9077,4.9078,0,4.8186,4.8205,4.8271,4.8345,4.84,4.846,4.8519,4.8553,4.8602,4.8654,4.8733,4.8782,4.8881,4.8957,4.9035,4.9074,4.9085,4.9089,4.9104,4.9096,4.9079,4.909,4.8956,4.9085,4.9084,4.9084,4.9083,4.9083,4.825,4.8302,4.8367,4.8441,4.849,4.8545,4.8599,4.8642,4.8708,4.8791,4.8809,4.8892,4.8957,4.9062,4.9104,4.9169,4.9161,4.9182,4.9188,4.9193,4.9195,4.9069,4.9184,4.9183,4.9183,4.9183,4.9183,0,4.8349,4.8393,4.846,4.8543,4.8601,4.8605,4.8672,4.872,4.8793,4.8852,4.8915,4.9005,4.908,4.9136,4.9212,4.9254,4.9261,4.9273,4.9271,4.928,4.9198,4.9178,4.9267,4.9267,4.9266,4.9266,4.9266,4.9266,4.8408,4.8495,4.8522,4.8634,4.8677,4.8758,4.8796,4.8848,4.8895,4.8996,4.9058,4.9094,4.9152,4.9234,4.9303,4.9317,4.9345,4.9356,4.9371,4.9294,4.9285,4.9277,4.9258,4.9362,4.9362,4.9448,4.9449,4.9449]}]]